Location: Newark
(40.8171°N, 74.0850°W)
Time: 10:50:18
(UTC+00:00)

Envisat - Visible Passes

Search period start: 07 April 2020 00:00
Search period end: 17 April 2020 00:00
Orbit: 764 x 766 km, 98.1° (Epoch: 07 April)

Date Brightness Start Highest point End Pass type
(mag) Time Alt. Az. Time Alt. Az. Time Alt. Az.
08 Apr 6.1 00:00:08 10° SW 00:02:56 15° W 00:05:45 10° WNW visible
13 Apr 6.6 00:16:56 10° W 00:17:16 10° W 00:17:37 10° W visible
16 Apr 6.2 00:03:24 10° WSW 00:05:50 13° W 00:08:16 10° WNW visible
